Weather History for Shelby, NC

Change the Weather History Date:

Monday, January 23, 2006

  Actual Average (KHKY) Record (KHKY)
Temperature  
Mean Temperature 40 °F -  
Max Temperature 46 °F 49 °F 72 °F (1967)
Min Temperature 33 °F 28 °F 10 °F (1977)
Degree Days  
Heating Degree Days 26    
Moisture  
Dew Point 40 °F    
Average Humidity 100    
Maximum Humidity 100    
Minimum Humidity 93    
Precipitation  
Precipitation 0.15 in - - ()
Sea Level Pressure  
Sea Level Pressure 30.13 in    
Wind  
Wind Speed 3 mph (South)    
Max Wind Speed 9 mph    
Max Gust Speed -    
Visibility 4 miles    
Events Fog , Rain    
Averages and records for this station are not official NWS values.
T = Trace of Precipitation, MM = Missing Value Source: NWS Daily Summary

Daily Weather History Graph

Daily Weather History Graph

Search for Another Location

Airport:

Trip Planner

Search our weather history database for the weather conditions in past years. The results will help you decide how hot, cold, wet, or windy it might be!

Date:

Astronomy

Jan. 23, 2006 Rise Set
Actual Time 7:31 AM EST 5:45 PM EST
Civil Twilight 7:04 AM EST 6:12 PM EST
Nautical Twilight 6:33 AM EST 6:43 PM EST
Astronomical Twilight 6:03 AM EST 7:13 PM EST
Moon 1:37 AM EST (1/23) 12:05 PM EST (1/23)
Length of Visible Light 11h 08m
Length of Day
10h 14m
Last Quarter, 39% of the Moon is Illuminated
Jan 23
Last Quarter
Jan 29
New
Feb 5
First Quarter
Feb 12
Full
Feb 21
Last Quarter

Hourly Weather History & Observations

Time (EST) Temp. Windchill Dew Point Humidity Pressure Visibility Wind Dir Wind Speed Gust Speed Precip Events Conditions
12:02 AM 33.8 °F 28.6 °F 33.8 °F 100% 30.32 in 7.0 mi NNE 5.8 mph - N/A   Overcast
12:22 AM 33.8 °F 27.7 °F 33.8 °F 100% 30.32 in 7.0 mi NNE 6.9 mph - N/A   Overcast
12:42 AM 33.8 °F 27.7 °F 33.8 °F 100% 30.30 in 5.0 mi NNE 6.9 mph - N/A   Drizzle
1:02 AM 33.8 °F 29.6 °F 33.8 °F 100% 30.30 in 4.0 mi NE 4.6 mph - N/A   Drizzle
1:22 AM 33.8 °F 29.6 °F 33.8 °F 100% 30.29 in 3.0 mi NNE 4.6 mph - 0.03 in   Drizzle
2:02 AM 33.8 °F 27.0 °F 33.8 °F 100% 30.27 in 4.0 mi NE 8.1 mph - N/A   Light Drizzle
2:22 AM 33.8 °F 28.6 °F 33.8 °F 100% 30.27 in 7.0 mi NNE 5.8 mph - N/A   Overcast
3:02 AM 33.8 °F 29.6 °F 33.8 °F 100% 30.26 in 7.0 mi NNE 4.6 mph - N/A   Overcast
3:22 AM 35.6 °F 31.7 °F 35.6 °F 100% 30.25 in 5.0 mi ENE 4.6 mph - N/A   Overcast
4:02 AM 33.8 °F - 33.8 °F 100% 30.24 in 5.0 mi Calm Calm - N/A   Overcast
4:22 AM 33.8 °F - 33.8 °F 100% 30.22 in 7.0 mi Calm Calm - N/A   Overcast
5:02 AM 33.8 °F - 33.8 °F 100% 30.22 in 3.0 mi Calm Calm - N/A   Overcast
5:22 AM 35.6 °F - 35.6 °F 100% 30.20 in 5.0 mi Calm Calm - N/A   Overcast
5:42 AM 35.6 °F - 35.6 °F 100% 30.19 in 7.0 mi Calm Calm - N/A   Overcast
6:02 AM 35.6 °F - 35.6 °F 100% 30.19 in 5.0 mi Calm Calm - N/A   Overcast
6:22 AM 35.6 °F - 35.6 °F 100% 30.19 in 3.0 mi Calm Calm - N/A   Overcast
6:42 AM 35.6 °F - 35.6 °F 100% 30.17 in 3.0 mi Calm Calm - N/A   Overcast
7:02 AM 35.6 °F - 35.6 °F 100% 30.17 in 2.0 mi Calm Calm - N/A   Overcast
7:22 AM 35.6 °F - 35.6 °F 100% 30.16 in 2.0 mi Calm Calm - N/A   Overcast
8:02 AM 35.6 °F - 35.6 °F 100% 30.17 in 1.2 mi Calm Calm - N/A Rain Light Rain
8:22 AM 35.6 °F - 35.6 °F 100% 30.17 in 1.8 mi Calm Calm - N/A   Overcast
8:42 AM 35.6 °F 29.9 °F 35.6 °F 100% 30.20 in 2.0 mi WNW 6.9 mph - N/A   Overcast
9:02 AM 35.6 °F 28.6 °F 35.6 °F 100% 30.16 in 1.0 mi SE 9.2 mph - N/A Rain Rain
9:22 AM 35.6 °F - 35.6 °F 100% 30.17 in 1.8 mi Calm Calm - 0.05 in Rain Light Rain
9:42 AM 35.6 °F - 35.6 °F 100% 30.17 in 3.0 mi Calm Calm - 0.05 in   Overcast
10:02 AM 37.4 °F - 37.4 °F 100% 30.15 in 5.0 mi Calm Calm - N/A   Overcast
10:23 AM 37.4 °F - 37.4 °F 100% 30.14 in 5.0 mi Calm Calm - N/A   Overcast
10:43 AM 37.4 °F - 37.4 °F 100% 30.15 in 2.5 mi Calm Calm - N/A   Overcast
11:02 AM 37.4 °F - 37.4 °F 100% 30.13 in 2.5 mi Calm Calm - N/A   Light Drizzle
11:22 AM 39.2 °F 35.0 °F 39.2 °F 100% 30.13 in 5.0 mi South 5.8 mph - N/A   Overcast
12:02 PM 41.0 °F 37.1 °F 41.0 °F 100% 30.11 in 7.0 mi SSW 5.8 mph - N/A   Overcast
12:43 PM 42.8 °F - 42.8 °F 100% 30.08 in 7.0 mi Calm Calm - N/A   Overcast
1:02 PM 44.6 °F 40.7 °F 44.6 °F 100% 30.07 in 10.0 mi SW 6.9 mph - N/A   Overcast
1:23 PM 46.4 °F 44.3 °F 44.6 °F 93% 30.06 in 10.0 mi SW 4.6 mph - N/A   Overcast
2:03 PM 46.4 °F 44.3 °F 44.6 °F 93% 30.05 in 10.0 mi SW 4.6 mph - N/A   Overcast
2:23 PM 46.4 °F 45.2 °F 44.6 °F 93% 30.03 in 10.0 mi SW 3.5 mph - N/A Rain Light Rain
2:43 PM 44.6 °F 42.2 °F 44.6 °F 100% 30.02 in 7.0 mi South 4.6 mph - N/A   Overcast
3:03 PM 44.6 °F 42.2 °F 44.6 °F 100% 30.03 in 5.0 mi South 4.6 mph - N/A Rain Light Rain
3:23 PM 44.6 °F 43.1 °F 44.6 °F 100% 30.02 in 5.0 mi South 3.5 mph - 0.01 in Rain Rain
3:43 PM 44.6 °F 41.4 °F 44.6 °F 100% 30.01 in 4.0 mi SSE 5.8 mph - 0.03 in Rain Light Rain
4:03 PM 44.6 °F 42.2 °F 44.6 °F 100% 30.02 in 2.0 mi South 4.6 mph - 0.04 in Rain Rain
4:23 PM 44.6 °F 42.2 °F 44.6 °F 100% 30.03 in 4.0 mi SSW 4.6 mph - 0.04 in   Overcast
4:43 PM 44.6 °F 42.2 °F 44.6 °F 100% 30.03 in 4.0 mi South 4.6 mph - 0.04 in   Overcast
5:03 PM 44.6 °F 43.1 °F 44.6 °F 100% 30.02 in 3.0 mi South 3.5 mph - N/A Rain Light Rain
5:23 PM 46.4 °F 45.2 °F 46.4 °F 100% 30.03 in 3.0 mi SSW 3.5 mph - N/A   Overcast
6:03 PM 46.4 °F 44.3 °F 46.4 °F 100% 30.02 in 5.0 mi South 4.6 mph - N/A   Overcast
6:23 PM 46.4 °F 44.3 °F 46.4 °F 100% 30.01 in 4.0 mi SSE 4.6 mph - N/A   Overcast
7:03 PM 46.4 °F - 46.4 °F 100% 30.01 in 5.0 mi Calm Calm - N/A   Overcast
7:23 PM 46.4 °F - 46.4 °F 100% 30.01 in 4.0 mi Calm Calm - N/A   Light Drizzle
8:03 PM 46.4 °F - 46.4 °F 100% 30.01 in 3.0 mi Calm Calm - N/A Rain Light Rain
8:23 PM 46.4 °F - 46.4 °F 100% 30.01 in 3.0 mi Calm Calm - N/A Rain Rain
9:03 PM 46.4 °F - 46.4 °F 100% 30.00 in 1.2 mi Calm Calm - N/A Rain Rain
9:23 PM 46.4 °F - 46.4 °F 100% 30.00 in 1.0 mi Calm Calm - N/A   Overcast
9:43 PM 46.4 °F - 46.4 °F 100% 30.00 in 0.8 mi Calm Calm - N/A   Overcast
10:03 PM 46.4 °F - 46.4 °F 100% 29.99 in 0.5 mi Calm Calm - N/A Fog Fog
10:23 PM 46.4 °F - 46.4 °F 100% 29.99 in 0.5 mi Calm Calm - N/A Fog Fog
11:03 PM 46.4 °F - 46.4 °F 100% 29.99 in 0.5 mi Calm Calm - N/A Fog Fog
11:23 PM 46.4 °F - 46.4 °F 100% 29.98 in 0.5 mi Calm Calm - N/A Fog Fog